Flag for U.S.A. Weather past 2 weeks in Columbia, South Carolina, U.S.A.

Now
70 °F

Clear.


Feels Like: 69 °F
Forecast: 65 / 82 °F
Wind: No wind

Location: Columbia Owens Downtown Airport

Current Time: Sep 19, 2014 at 10:49:08 PM

Latest Report: Sep 19, 2014 at 9:53 PM


Visibility: 10 mi

Pressure: 30.14 "Hg

Humidity: 84%

Dew point: 65 °F

Location of ColumbiaLocation

Historic Weather in Columbia — Graph

°F

Columbia temperature yesterday

Maximum temperature yesterday: 84 °F (at 4:53 PM)
Minimum temperature yesterday: 66 °F (at 5:53 AM)
Average temperature yesterday: 73 °F

Past Weeks' High & Low Weather Summary

 TemperatureHumidityPressure
High93 °F (Sep 11, 3:53 PM)94% (Sep 7, 5:53 AM)30.24 "Hg (Sep 7, 5:53 AM)
Low66 °F (Sep 18, 5:53 AM)44% (Sep 11, 4:53 PM)29.89 "Hg (Sep 17, 4:53 PM)
Average77 °F79%30.05 "Hg
* Reported Sep 4 8:53 PM — Sep 19 8:53 PM, Columbia, Weather by CustomWeather, © 2014

Note: Actual official high and low records may vary slightly from our data, if they occured in-between our weather recording intervals... More about our weather records

Advertising

Columbia weather history for previous 24 hours

 ConditionsComfort  
Time TempWeatherWind HumidityBarometerVisibility
8:53 PM
Sep 19
71 °FPassing clouds.No wind84%30.14 "Hg10 mi
7:53 PM73 °FScattered clouds.No wind74%30.13 "Hg10 mi
6:53 PM77 °FScattered clouds.No wind69%30.11 "Hg10 mi
5:53 PM78 °FPartly sunny.5 mph64%30.10 "Hg10 mi
4:53 PM82 °FScattered clouds.7 mph53%30.09 "Hg10 mi
3:53 PM83 °FPassing clouds.5 mph51%30.09 "Hg10 mi
2:53 PM81 °FPassing clouds.5 mph60%30.09 "Hg10 mi
1:53 PM77 °FPartly sunny.6 mph71%30.11 "Hg10 mi
12:53 PM75 °FOvercast.3 mph76%30.12 "Hg10 mi
11:53 AM74 °FMore clouds than sun.No wind79%30.12 "Hg10 mi
10:53 AM70 °FMostly cloudy.No wind87%30.12 "Hg10 mi
9:53 AM68 °FLight rain. Fog.6 mph90%30.10 "Hg5 mi
8:53 AM69 °FLight rain. Overcast.No wind90%30.09 "Hg8 mi
7:53 AM66 °FStrong thunderstorms. Fog.8 mph87%30.09 "Hg0 mi
7:00 AM70 °FThundershowers. Overcast.5 mph79%30.07 "Hg10 mi
5:53 AM70 °FMostly cloudy.6 mph87%30.04 "Hg10 mi
4:53 AM70 °FPassing clouds.No wind90%30.03 "Hg7 mi
3:53 AM71 °FClear.No wind90%30.01 "Hg9 mi
2:53 AM72 °FPassing clouds.No wind87%30.02 "Hg10 mi
1:53 AM72 °FPassing clouds.No wind87%30.01 "Hg10 mi
12:53 AM72 °FClear.No wind87%30.01 "Hg10 mi
11:53 PM
Sep 18
72 °FClear.No wind84%30.01 "Hg10 mi
10:53 PM72 °FPassing clouds.No wind84%30.01 "Hg10 mi
Weather by CustomWeather, © 2014

See weather overviewHow to use our weather pages